| time (UTC) | temp F | wind direction | speed MPH | gust MPH | rain 1hr in | rain 24hr in | rain mn in | humidity % | barometer mb |
| 20260506051005 | 60 | 346 | 2.0 | 3.0 | 0.00 | 0.00 | 0.00 | 80 | 1006.4 |
| 20260506050503 | 61 | 56 | 2.0 | 3.0 | 0.00 | 0.00 | 0.00 | 80 | 1006.6 |
| 20260506044953 | 61 | 13 | 3.0 | 5.0 | 0.00 | 0.00 | 0.00 | 80 | 1006.1 |
| 20260506044452 | 61 | 33 | 1.0 | 1.0 | 0.00 | 0.00 | 0.00 | 80 | 1006.0 |
| 20260506043948 | 62 | 298 | 3.0 | 5.0 | 0.00 | 0.00 | 0.00 | 79 | 1006.1 |
| 20260506043445 | 62 | 49 | 3.0 | 3.0 | 0.00 | 0.00 | 0.00 | 79 | 1006.0 |
| 20260506042943 | 62 | 25 | 2.0 | 2.0 | 0.00 | 0.00 | 0.00 | 79 | 1005.8 |
| 20260506042442 | 63 | 331 | 5.0 | 5.0 | 0.00 | 0.00 | 0.00 | 78 | 1005.7 |
| 20260506041940 | 63 | 52 | 3.0 | 6.0 | 0.00 | 0.00 | 0.00 | 78 | 1005.8 |
| 20260506041437 | 63 | 6 | 2.0 | 2.0 | 0.00 | 0.00 | 0.00 | 78 | 1005.8 |
| 20260506040935 | 63 | 47 | 1.0 | 3.0 | 0.00 | 0.00 | 0.00 | 78 | 1005.7 |
| 20260506040432 | 63 | 42 | 3.0 | 3.0 | 0.00 | 0.00 | 0.00 | 79 | 1005.7 |
| 20260506035928 | 64 | 16 | 3.0 | 3.0 | 0.00 | 0.00 | 0.00 | 79 | 1005.6 |
| 20260506035426 | 64 | 7 | 3.0 | 3.0 | 0.00 | 0.00 | 0.00 | 80 | 1005.7 |
| 20260506034922 | 64 | 330 | 6.0 | 9.0 | 0.00 | 0.00 | 0.00 | 79 | 1005.5 |
| 20260506034419 | 64 | 8 | 3.0 | 8.0 | 0.00 | 0.00 | 0.00 | 79 | 1005.5 |
| 20260506033916 | 65 | 345 | 3.0 | 5.0 | 0.00 | 0.00 | 0.00 | 79 | 1005.4 |
| 20260506033414 | 65 | 51 | 1.0 | 2.0 | 0.00 | 0.00 | 0.00 | 79 | 1005.3 |
| 20260506032910 | 65 | 5 | 3.0 | 3.0 | 0.00 | 0.00 | 0.00 | 78 | 1005.3 |
| 20260506032407 | 66 | 14 | 1.0 | 1.0 | 0.00 | 0.00 | 0.00 | 78 | 1005.6 |
| 20260506031904 | 66 | 353 | 2.0 | 2.0 | 0.00 | 0.00 | 0.00 | 78 | 1005.5 |
| 20260506031401 | 67 | 37 | 1.0 | 2.0 | 0.00 | 0.00 | 0.00 | 78 | 1005.4 |
| 20260506030859 | 67 | 41 | 1.0 | 1.0 | 0.00 | 0.00 | 0.00 | 78 | 1005.2 |
| 20260506030357 | 68 | 49 | 0.0 | 1.0 | 0.00 | 0.00 | 0.00 | 78 | 1005.1 |
| 20260506025853 | 68 | 0 | 3.0 | 3.0 | 0.00 | 0.00 | 0.00 | 77 | 1005.4 |
| 20260506025350 | 68 | 34 | 2.0 | 5.0 | 0.00 | 0.00 | 0.00 | 77 | 1005.1 |
| 20260506024847 | 69 | 346 | 2.0 | 3.0 | 0.00 | 0.00 | 0.00 | 77 | 1005.0 |
| 20260506024344 | 69 | 325 | 2.0 | 3.0 | 0.00 | 0.00 | 0.00 | 76 | 1004.9 |
| 20260506023840 | 69 | 50 | 1.0 | 2.0 | 0.00 | 0.00 | 0.00 | 76 | 1004.9 |
| 20260506023337 | 69 | 2 | 3.0 | 5.0 | 0.00 | 0.00 | 0.00 | 76 | 1004.5 |
| 20260506022833 | 69 | 56 | 0.0 | 0.0 | 0.00 | 0.00 | 0.00 | 76 | 1004.5 |
| 20260506022331 | 69 | 5 | 1.0 | 1.0 | 0.00 | 0.00 | 0.00 | 76 | 1004.4 |
| 20260506021829 | 70 | 35 | 3.0 | 6.0 | 0.00 | 0.00 | 0.00 | 76 | 1004.0 |
| 20260506021326 | 70 | 18 | 3.0 | 6.0 | 0.00 | 0.00 | 0.00 | 76 | 1004.2 |
| 20260506020822 | 71 | 32 | 1.0 | 3.0 | 0.00 | 0.00 | 0.00 | 76 | 1003.8 |
| 20260506020320 | 71 | 10 | 2.0 | 3.0 | 0.00 | 0.00 | 0.00 | 75 | 1003.7 |
| 20260506015818 | 72 | 341 | 3.0 | 6.0 | 0.00 | 0.00 | 0.00 | 74 | 1003.7 |
| 20260506015315 | 72 | 13 | 2.0 | 2.0 | 0.00 | 0.00 | 0.00 | 72 | 1003.7 |
| 20260506014812 | 72 | 10 | 0.0 | 1.0 | 0.00 | 0.00 | 0.00 | 72 | 1003.6 |
| 20260506014309 | 73 | 49 | 0.0 | 1.0 | 0.00 | 0.00 | 0.00 | 72 | 1003.6 |
| 20260506013805 | 73 | 47 | 1.0 | 2.0 | 0.00 | 0.00 | 0.00 | 71 | 1003.2 |
| 20260506013303 | 73 | 48 | 0.0 | 0.0 | 0.00 | 0.00 | 0.00 | 71 | 1003.4 |
| 20260506012759 | 73 | 33 | 2.0 | 3.0 | 0.00 | 0.00 | 0.00 | 71 | 1003.4 |
| 20260506012256 | 73 | 30 | 0.0 | 1.0 | 0.00 | 0.00 | 0.00 | 71 | 1003.5 |
| 20260506011753 | 73 | 339 | 3.0 | 5.0 | 0.00 | 0.00 | 0.00 | 70 | 1003.2 |
| 20260506011249 | 73 | 9 | 3.0 | 3.0 | 0.00 | 0.00 | 0.00 | 69 | 1002.9 |
| 20260506010748 | 73 | 33 | 2.0 | 2.0 | 0.00 | 0.00 | 0.00 | 69 | 1002.8 |
| 20260506010245 | 74 | 47 | 1.0 | 1.0 | 0.00 | 0.00 | 0.00 | 70 | 1002.8 |
| 20260506005742 | 74 | 31 | 1.0 | 2.0 | 0.00 | 0.00 | 0.00 | 70 | 1002.4 |
| 20260506005239 | 74 | 6 | 1.0 | 1.0 | 0.00 | 0.00 | 0.00 | 70 | 1002.2 |
| 20260506004734 | 74 | 21 | 2.0 | 3.0 | 0.00 | 0.00 | 0.00 | 69 | 1002.2 |
| 20260506004232 | 75 | 30 | 1.0 | 2.0 | 0.00 | 0.00 | 0.00 | 69 | 1002.6 |
| 20260506003728 | 75 | 348 | 2.0 | 2.0 | 0.00 | 0.00 | 0.00 | 69 | 1002.5 |
| 20260506003225 | 75 | 9 | 2.0 | 2.0 | 0.00 | 0.00 | 0.00 | 68 | 1002.5 |
| 20260506002721 | 75 | 6 | 2.0 | 2.0 | 0.00 | 0.00 | 0.00 | 69 | 1002.5 |
| 20260506002217 | 76 | 339 | 3.0 | 3.0 | 0.00 | 0.00 | 0.00 | 68 | 1002.4 |
| 20260506001713 | 77 | 338 | 1.0 | 2.0 | 0.00 | 0.00 | 0.00 | 68 | 1002.4 |
| 20260506001211 | 77 | 329 | 3.0 | 6.0 | 0.00 | 0.00 | 0.00 | 67 | 1002.1 |
| 20260506000707 | 77 | 39 | 3.0 | 6.0 | 0.00 | 0.00 | 0.00 | 66 | 1002.1 |
| 20260506000205 | 78 | 9 | 4.0 | 6.0 | 0.00 | 0.00 | 0.00 | 65 | 1002.1 |
| 20260505235703 | 78 | 330 | 1.0 | 2.0 | 0.00 | 0.00 | 0.00 | 65 | 1001.7 |
| 20260505235200 | 79 | 355 | 5.0 | 9.0 | 0.00 | 0.00 | 0.00 | 65 | 1001.7 |
| 20260505234657 | 79 | 352 | 1.0 | 2.0 | 0.00 | 0.00 | 0.00 | 64 | 1001.7 |
| 20260505234154 | 80 | 325 | 3.0 | 6.0 | 0.00 | 0.00 | 0.00 | 64 | 1001.6 |
| 20260505233650 | 81 | 35 | 2.0 | 3.0 | 0.00 | 0.00 | 0.00 | 62 | 1001.9 |
| 20260505233148 | 81 | 309 | 4.0 | 5.0 | 0.00 | 0.00 | 0.00 | 61 | 1001.8 |
| 20260505232646 | 82 | 24 | 1.0 | 3.0 | 0.00 | 0.00 | 0.00 | 61 | 1001.7 |
| 20260505232143 | 83 | 358 | 4.0 | 6.0 | 0.00 | 0.00 | 0.00 | 59 | 1001.5 |
| 20260505231639 | 84 | 27 | 2.0 | 2.0 | 0.00 | 0.00 | 0.00 | 55 | 1001.4 |
| 20260505231139 | 84 | 355 | 2.0 | 3.0 | 0.00 | 0.00 | 0.00 | 53 | 1001.4 |
| 20260505230636 | 85 | 15 | 2.0 | 3.0 | 0.00 | 0.00 | 0.00 | 51 | 1001.1 |
| 20260505230132 | 86 | 12 | 3.0 | 5.0 | 0.00 | 0.00 | 0.00 | 51 | 1001.2 |
| 20260505225629 | 86 | 41 | 3.0 | 3.0 | 0.00 | 0.00 | 0.00 | 50 | 1000.9 |
| 20260505225125 | 87 | 353 | 2.0 | 3.0 | 0.00 | 0.00 | 0.00 | 48 | 1000.9 |
| 20260505224622 | 89 | 8 | 1.0 | 1.0 | 0.00 | 0.00 | 0.00 | 47 | 1001.0 |
| 20260505224119 | 89 | 248 | 1.0 | 2.0 | 0.00 | 0.00 | 0.00 | 52 | 1000.9 |
| 20260505223616 | 89 | 226 | 2.0 | 2.0 | 0.00 | 0.00 | 0.00 | 53 | 1000.8 |
| 20260505223112 | 89 | 167 | 3.0 | 5.0 | 0.00 | 0.00 | 0.00 | 52 | 1000.6 |
| 20260505222609 | 90 | 225 | 1.0 | 1.0 | 0.00 | 0.00 | 0.00 | 53 | 1000.6 |
| 20260505222105 | 89 | 165 | 1.0 | 1.0 | 0.00 | 0.00 | 0.00 | 53 | 1000.4 |
| 20260505221602 | 89 | 177 | 1.0 | 1.0 | 0.00 | 0.00 | 0.00 | 52 | 1000.5 |
| 20260505221058 | 90 | 202 | 4.0 | 5.0 | 0.00 | 0.00 | 0.00 | 52 | 1000.3 |
| 20260505220556 | 90 | 141 | 9.0 | 11.0 | 0.00 | 0.00 | 0.00 | 53 | 1000.1 |
| 20260505220054 | 91 | 190 | 0.0 | 1.0 | 0.00 | 0.00 | 0.00 | 53 | 1000.5 |
| 20260505215552 | 91 | 329 | 1.0 | 1.0 | 0.00 | 0.00 | 0.00 | 51 | 1000.6 |
| 20260505215049 | 91 | 241 | 3.0 | 3.0 | 0.00 | 0.00 | 0.00 | 51 | 1000.6 |
| 20260505214547 | 90 | 245 | 5.0 | 7.0 | 0.00 | 0.00 | 0.00 | 51 | 1000.6 |
| 20260505214044 | 91 | 235 | 7.0 | 9.0 | 0.00 | 0.00 | 0.00 | 51 | 1000.6 |
| 20260505213542 | 89 | 320 | 0.0 | 0.0 | 0.00 | 0.00 | 0.00 | 54 | 1000.5 |
| 20260505213037 | 89 | 126 | 2.0 | 3.0 | 0.00 | 0.00 | 0.00 | 54 | 1000.5 |
| 20260505212534 | 90 | 264 | 5.0 | 6.0 | 0.00 | 0.00 | 0.00 | 53 | 1000.8 |
| 20260505212032 | 90 | 213 | 5.0 | 7.0 | 0.00 | 0.00 | 0.00 | 52 | 1000.9 |
| 20260505211529 | 89 | 197 | 3.0 | 5.0 | 0.00 | 0.00 | 0.00 | 55 | 1000.8 |
| 20260505211025 | 88 | 107 | 4.0 | 6.0 | 0.00 | 0.00 | 0.00 | 55 | 1001.1 |
| 20260505210522 | 90 | 245 | 8.0 | 10.0 | 0.00 | 0.00 | 0.00 | 52 | 1001.0 |
| 20260505210019 | 90 | 179 | 8.0 | 10.0 | 0.00 | 0.00 | 0.00 | 53 | 1000.9 |
| 20260505205517 | 89 | 238 | 5.0 | 7.0 | 0.00 | 0.00 | 0.00 | 57 | 1001.0 |
| 20260505205014 | 88 | 243 | 7.0 | 10.0 | 0.00 | 0.00 | 0.00 | 56 | 1001.2 |
| 20260505204512 | 87 | 272 | 2.0 | 3.0 | 0.00 | 0.00 | 0.00 | 61 | 1001.2 |
| 20260505204009 | 87 | 260 | 4.0 | 7.0 | 0.00 | 0.00 | 0.00 | 60 | 1001.0 |
| 20260505203505 | 88 | 179 | 6.0 | 9.0 | 0.00 | 0.00 | 0.00 | 60 | 1001.4 |
| 20260505203001 | 88 | 245 | 3.0 | 5.0 | 0.00 | 0.00 | 0.00 | 59 | 1001.5 |
| 20260505202458 | 88 | 189 | 6.0 | 8.0 | 0.00 | 0.00 | 0.00 | 59 | 1001.3 |
| 20260505201954 | 88 | 181 | 7.0 | 9.0 | 0.00 | 0.00 | 0.00 | 59 | 1001.4 |
| 20260505201451 | 87 | 180 | 4.0 | 6.0 | 0.00 | 0.00 | 0.00 | 62 | 1001.4 |
| 20260505200949 | 87 | 227 | 4.0 | 6.0 | 0.00 | 0.00 | 0.00 | 62 | 1001.5 |
| 20260505200447 | 86 | 198 | 5.0 | 7.0 | 0.00 | 0.00 | 0.00 | 63 | 1001.3 |
| 20260505195942 | 87 | 163 | 5.0 | 7.0 | 0.00 | 0.00 | 0.00 | 62 | 1001.3 |
| 20260505195439 | 86 | 263 | 3.0 | 5.0 | 0.00 | 0.00 | 0.00 | 62 | 1001.5 |
| 20260505194937 | 87 | 202 | 7.0 | 9.0 | 0.00 | 0.00 | 0.00 | 62 | 1001.7 |
| 20260505194434 | 87 | 194 | 5.0 | 7.0 | 0.00 | 0.00 | 0.00 | 62 | 1001.4 |
| 20260505193934 | 85 | 196 | 3.0 | 5.0 | 0.00 | 0.00 | 0.00 | 64 | 1001.7 |
| 20260505193432 | 85 | 203 | 4.0 | 6.0 | 0.00 | 0.00 | 0.00 | 63 | 1001.7 |
| 20260505192929 | 86 | 231 | 9.0 | 10.0 | 0.00 | 0.00 | 0.00 | 63 | 1001.7 |
| 20260505192428 | 86 | 225 | 4.0 | 6.0 | 0.00 | 0.00 | 0.00 | 63 | 1001.8 |
| 20260505191925 | 86 | 172 | 5.0 | 7.0 | 0.00 | 0.00 | 0.00 | 64 | 1001.7 |
| 20260505191424 | 85 | 309 | 4.0 | 7.0 | 0.00 | 0.00 | 0.00 | 65 | 1001.6 |
| 20260505190920 | 85 | 241 | 4.0 | 6.0 | 0.00 | 0.00 | 0.00 | 66 | 1001.7 |
| 20260505190415 | 84 | 197 | 7.0 | 9.0 | 0.00 | 0.00 | 0.00 | 66 | 1001.6 |
| 20260505185910 | 84 | 216 | 3.0 | 5.0 | 0.00 | 0.00 | 0.00 | 66 | 1001.8 |
| 20260505185408 | 83 | 186 | 7.0 | 9.0 | 0.00 | 0.00 | 0.00 | 67 | 1001.4 |
| 20260505184904 | 83 | 220 | 4.0 | 5.0 | 0.00 | 0.00 | 0.00 | 68 | 1001.9 |
| 20260505184401 | 83 | 184 | 4.0 | 6.0 | 0.00 | 0.00 | 0.00 | 68 | 1001.6 |
| 20260505183858 | 83 | 222 | 6.0 | 8.0 | 0.00 | 0.00 | 0.00 | 68 | 1001.8 |
| 20260505183354 | 83 | 232 | 5.0 | 7.0 | 0.00 | 0.00 | 0.00 | 67 | 1001.8 |
| 20260505182851 | 83 | 182 | 7.0 | 10.0 | 0.00 | 0.00 | 0.00 | 68 | 1001.8 |
| 20260505182348 | 83 | 204 | 5.0 | 7.0 | 0.00 | 0.00 | 0.00 | 68 | 1001.7 |
| 20260505181845 | 83 | 200 | 6.0 | 8.0 | 0.00 | 0.00 | 0.00 | 68 | 1001.7 |
| 20260505181342 | 83 | 238 | 5.0 | 6.0 | 0.00 | 0.00 | 0.00 | 67 | 1002.0 |
| 20260505180839 | 83 | 230 | 3.0 | 3.0 | 0.00 | 0.00 | 0.00 | 68 | 1001.8 |
| 20260505180335 | 82 | 167 | 3.0 | 5.0 | 0.00 | 0.00 | 0.00 | 70 | 1001.9 |
| 20260505175832 | 82 | 182 | 8.0 | 10.0 | 0.00 | 0.00 | 0.00 | 69 | 1001.8 |
| 20260505175328 | 82 | 202 | 5.0 | 7.0 | 0.00 | 0.00 | 0.00 | 69 | 1001.7 |
| 20260505174825 | 82 | 209 | 4.0 | 5.0 | 0.00 | 0.00 | 0.00 | 70 | 1001.8 |
| 20260505174322 | 81 | 226 | 7.0 | 9.0 | 0.00 | 0.00 | 0.00 | 71 | 1002.0 |
| 20260505173818 | 81 | 193 | 6.0 | 9.0 | 0.00 | 0.00 | 0.00 | 71 | 1001.9 |
| 20260505173315 | 81 | 211 | 11.0 | 13.0 | 0.00 | 0.00 | 0.00 | 70 | 1002.0 |
| 20260505172812 | 80 | 244 | 4.0 | 5.0 | 0.00 | 0.00 | 0.00 | 72 | 1001.8 |
| 20260505172310 | 80 | 215 | 10.0 | 11.0 | 0.00 | 0.00 | 0.00 | 71 | 1002.0 |
| 20260505171804 | 81 | 270 | 7.0 | 8.0 | 0.00 | 0.00 | 0.00 | 71 | 1002.1 |
| 20260505171301 | 79 | 189 | 10.0 | 14.0 | 0.00 | 0.00 | 0.00 | 73 | 1002.2 |
| 20260505170757 | 79 | 202 | 5.0 | 8.0 | 0.00 | 0.00 | 0.00 | 73 | 1002.0 |
| 20260505170255 | 80 | 238 | 5.0 | 7.0 | 0.00 | 0.00 | 0.00 | 73 | 1001.9 |
| 20260505165749 | 80 | 189 | 4.0 | 7.0 | 0.00 | 0.00 | 0.00 | 72 | 1002.2 |
| 20260505165246 | 80 | 161 | 4.0 | 5.0 | 0.00 | 0.00 | 0.00 | 73 | 1001.9 |
| 20260505164741 | 80 | 216 | 4.0 | 6.0 | 0.00 | 0.00 | 0.00 | 73 | 1001.9 |
| 20260505164239 | 79 | 175 | 5.0 | 6.0 | 0.00 | 0.00 | 0.00 | 73 | 1001.9 |
| 20260505163737 | 78 | 162 | 6.0 | 8.0 | 0.00 | 0.00 | 0.00 | 74 | 1002.0 |
| 20260505163235 | 79 | 215 | 9.0 | 14.0 | 0.00 | 0.00 | 0.00 | 74 | 1001.8 |
| 20260505162732 | 78 | 175 | 6.0 | 8.0 | 0.00 | 0.00 | 0.00 | 74 | 1001.9 |
| 20260505162229 | 78 | 200 | 10.0 | 13.0 | 0.00 | 0.00 | 0.00 | 74 | 1001.7 |
| 20260505161726 | 78 | 136 | 2.0 | 3.0 | 0.00 | 0.00 | 0.00 | 74 | 1001.9 |
| 20260505161224 | 78 | 194 | 4.0 | 7.0 | 0.00 | 0.00 | 0.00 | 75 | 1001.9 |
| 20260505160721 | 78 | 200 | 12.0 | 17.0 | 0.00 | 0.00 | 0.00 | 75 | 1001.6 |
| 20260505160218 | 78 | 223 | 5.0 | 6.0 | 0.00 | 0.00 | 0.00 | 75 | 1001.8 |
| 20260505153157 | 77 | 228 | 9.0 | 10.0 | 0.00 | 0.00 | 0.00 | 77 | 1001.4 |
| 20260505152654 | 77 | 202 | 9.0 | 14.0 | 0.00 | 0.00 | 0.00 | 76 | 1001.6 |
| 20260505152150 | 76 | 226 | 9.0 | 14.0 | 0.00 | 0.00 | 0.00 | 78 | 1001.6 |
| 20260505151645 | 76 | 197 | 11.0 | 15.0 | 0.00 | 0.00 | 0.00 | 77 | 1001.6 |
| 20260505151143 | 76 | 229 | 6.0 | 9.0 | 0.00 | 0.00 | 0.00 | 78 | 1001.7 |
| 20260505150639 | 76 | 193 | 6.0 | 8.0 | 0.00 | 0.00 | 0.00 | 79 | 1001.6 |
| 20260505150136 | 76 | 190 | 6.0 | 8.0 | 0.00 | 0.00 | 0.00 | 79 | 1001.6 |
| 20260505140605 | 73 | 198 | 5.0 | 6.0 | 0.00 | 0.00 | 0.00 | 83 | 1001.3 |
| 20260505125018 | 72 | 191 | 4.0 | 6.0 | 0.00 | 0.00 | 0.00 | 85 | 1000.6 |
| 20260505124515 | 72 | 238 | 5.0 | 7.0 | 0.00 | 0.00 | 0.00 | 85 | 1000.5 |
| 20260505124011 | 72 | 195 | 7.0 | 7.0 | 0.00 | 0.00 | 0.00 | 85 | 1000.6 |
| 20260505123508 | 72 | 205 | 2.0 | 3.0 | 0.00 | 0.00 | 0.00 | 85 | 1000.6 |
| 20260505123004 | 71 | 209 | 5.0 | 8.0 | 0.00 | 0.00 | 0.00 | 85 | 1000.3 |
| 20260505122501 | 71 | 189 | 3.0 | 3.0 | 0.00 | 0.00 | 0.00 | 85 | 1000.2 |
| 20260505121958 | 72 | 251 | 6.0 | 9.0 | 0.00 | 0.00 | 0.00 | 85 | 1000.0 |
| 20260505121454 | 72 | 197 | 6.0 | 8.0 | 0.00 | 0.00 | 0.00 | 85 | 1000.2 |
| 20260505120950 | 72 | 148 | 3.0 | 3.0 | 0.00 | 0.00 | 0.00 | 85 | 1000.2 |
| 20260505120447 | 72 | 158 | 4.0 | 6.0 | 0.00 | 0.00 | 0.00 | 85 | 1000.1 |
| 20260505115946 | 72 | 183 | 6.0 | 7.0 | 0.00 | 0.00 | 0.00 | 85 | 999.8 |
| 20260505115443 | 72 | 220 | 2.0 | 2.0 | 0.00 | 0.00 | 0.00 | 84 | 1000.2 |
| 20260505114941 | 72 | 184 | 9.0 | 15.0 | 0.00 | 0.00 | 0.00 | 84 | 999.7 |
| 20260505114432 | 72 | 184 | 8.0 | 10.0 | 0.00 | 0.00 | 0.00 | 85 | 999.9 |
| 20260505113928 | 72 | 193 | 5.0 | 8.0 | 0.00 | 0.00 | 0.00 | 85 | 1000.0 |
| 20260505113425 | 72 | 212 | 7.0 | 9.0 | 0.00 | 0.00 | 0.00 | 85 | 999.8 |
| 20260505112921 | 72 | 238 | 8.0 | 9.0 | 0.00 | 0.00 | 0.00 | 84 | 1000.2 |
| 20260505112419 | 72 | 219 | 9.0 | 13.0 | 0.00 | 0.00 | 0.00 | 84 | 999.7 |
| 20260505111914 | 72 | 215 | 9.0 | 11.0 | 0.00 | 0.00 | 0.00 | 84 | 999.8 |
| 20260505111415 | 72 | 219 | 8.0 | 15.0 | 0.00 | 0.00 | 0.00 | 83 | 999.7 |
| 20260505110911 | 72 | 244 | 5.0 | 7.0 | 0.00 | 0.00 | 0.00 | 84 | 1000.2 |
| 20260505110408 | 72 | 220 | 5.0 | 6.0 | 0.00 | 0.00 | 0.00 | 84 | 1000.0 |
| 20260505101838 | 71 | 150 | 3.0 | 5.0 | 0.00 | 0.00 | 0.00 | 85 | 1000.0 |
| 20260505101334 | 71 | 269 | 6.0 | 8.0 | 0.00 | 0.00 | 0.00 | 85 | 1000.0 |
| 20260505100830 | 71 | 240 | 3.0 | 5.0 | 0.00 | 0.00 | 0.00 | 85 | 999.6 |
| 20260505100327 | 71 | 169 | 5.0 | 8.0 | 0.00 | 0.00 | 0.00 | 85 | 999.8 |
| 20260505095822 | 71 | 222 | 5.0 | 8.0 | 0.00 | 0.00 | 0.00 | 85 | 999.9 |
| 20260505095320 | 71 | 236 | 4.0 | 6.0 | 0.00 | 0.00 | 0.00 | 85 | 999.6 |
| 20260505094816 | 71 | 191 | 7.0 | 9.0 | 0.00 | 0.00 | 0.00 | 85 | 1000.3 |
| 20260505094313 | 71 | 169 | 6.0 | 7.0 | 0.00 | 0.00 | 0.00 | 85 | 1000.2 |
| 20260505093808 | 71 | 237 | 3.0 | 3.0 | 0.00 | 0.00 | 0.00 | 85 | 1000.3 |
| 20260505093307 | 71 | 196 | 4.0 | 7.0 | 0.00 | 0.00 | 0.00 | 85 | 1000.3 |
| 20260505092803 | 71 | 203 | 6.0 | 8.0 | 0.00 | 0.00 | 0.00 | 85 | 1000.1 |
| 20260505092304 | 71 | 210 | 6.0 | 8.0 | 0.00 | 0.00 | 0.00 | 85 | 1000.2 |
| 20260505091758 | 71 | 178 | 5.0 | 7.0 | 0.00 | 0.00 | 0.00 | 85 | 1000.4 |
| 20260505091256 | 71 | 195 | 4.0 | 7.0 | 0.00 | 0.00 | 0.00 | 85 | 1000.5 |
| 20260505090754 | 71 | 179 | 10.0 | 14.0 | 0.00 | 0.00 | 0.00 | 85 | 1000.3 |
| 20260505090252 | 71 | 220 | 5.0 | 8.0 | 0.00 | 0.00 | 0.00 | 85 | 1000.3 |
| 20260505085749 | 71 | 198 | 7.0 | 9.0 | 0.00 | 0.00 | 0.00 | 85 | 1000.3 |
| 20260505085247 | 71 | 201 | 5.0 | 6.0 | 0.00 | 0.00 | 0.00 | 86 | 1000.1 |
| 20260505084744 | 71 | 212 | 6.0 | 8.0 | 0.00 | 0.00 | 0.00 | 86 | 1000.3 |
| 20260505084243 | 71 | 185 | 4.0 | 7.0 | 0.00 | 0.00 | 0.00 | 86 | 1000.2 |
| 20260505083739 | 71 | 213 | 6.0 | 7.0 | 0.00 | 0.00 | 0.00 | 86 | 1000.2 |
| 20260505083236 | 71 | 212 | 5.0 | 10.0 | 0.00 | 0.00 | 0.00 | 85 | 1000.5 |
| 20260505082732 | 71 | 199 | 6.0 | 8.0 | 0.00 | 0.00 | 0.00 | 85 | 1000.5 |
| 20260505082230 | 71 | 220 | 9.0 | 11.0 | 0.00 | 0.00 | 0.00 | 85 | 1000.6 |
| 20260505081725 | 71 | 188 | 8.0 | 11.0 | 0.00 | 0.00 | 0.00 | 85 | 1000.5 |
| 20260505081223 | 71 | 207 | 7.0 | 9.0 | 0.00 | 0.00 | 0.00 | 85 | 1000.5 |
| 20260505080720 | 71 | 104 | 0.0 | 1.0 | 0.00 | 0.00 | 0.00 | 84 | 1000.3 |
| 20260505080215 | 71 | 215 | 9.0 | 13.0 | 0.00 | 0.00 | 0.00 | 84 | 1000.6 |
| 20260505075711 | 71 | 205 | 3.0 | 5.0 | 0.00 | 0.00 | 0.00 | 84 | 1000.6 |
| 20260505075209 | 71 | 175 | 11.0 | 14.0 | 0.00 | 0.00 | 0.00 | 83 | 1000.5 |
| 20260505074706 | 71 | 207 | 3.0 | 5.0 | 0.00 | 0.00 | 0.00 | 83 | 1000.5 |
| 20260505074203 | 72 | 210 | 7.0 | 9.0 | 0.00 | 0.00 | 0.00 | 83 | 1000.6 |
| 20260505073700 | 72 | 187 | 7.0 | 8.0 | 0.00 | 0.00 | 0.00 | 83 | 1000.7 |
| 20260505073158 | 72 | 261 | 3.0 | 7.0 | 0.00 | 0.00 | 0.00 | 82 | 1000.7 |
| 20260505072653 | 72 | 188 | 4.0 | 6.0 | 0.00 | 0.00 | 0.00 | 82 | 1000.9 |
| 20260505072150 | 72 | 233 | 5.0 | 7.0 | 0.00 | 0.00 | 0.00 | 82 | 1001.1 |
| 20260505071646 | 72 | 187 | 5.0 | 6.0 | 0.00 | 0.00 | 0.00 | 81 | 1001.2 |
| 20260505071144 | 72 | 186 | 7.0 | 11.0 | 0.00 | 0.00 | 0.00 | 81 | 1001.3 |
| 20260505070641 | 72 | 203 | 6.0 | 7.0 | 0.00 | 0.00 | 0.00 | 81 | 1001.4 |
| 20260505070137 | 72 | 208 | 4.0 | 6.0 | 0.00 | 0.00 | 0.00 | 80 | 1001.4 |
| 20260505065633 | 72 | 202 | 5.0 | 7.0 | 0.00 | 0.00 | 0.00 | 80 | 1001.3 |
| 20260505065130 | 72 | 190 | 3.0 | 6.0 | 0.00 | 0.00 | 0.00 | 80 | 1001.4 |
| 20260505064627 | 72 | 195 | 8.0 | 9.0 | 0.00 | 0.00 | 0.00 | 80 | 1001.5 |
| 20260505064125 | 72 | 180 | 7.0 | 8.0 | 0.00 | 0.00 | 0.00 | 79 | 1001.6 |
| 20260505063622 | 72 | 191 | 7.0 | 9.0 | 0.00 | 0.00 | 0.00 | 79 | 1001.6 |
| 20260505063118 | 72 | 189 | 4.0 | 7.0 | 0.00 | 0.00 | 0.00 | 79 | 1001.7 |
| 20260505062615 | 72 | 196 | 4.0 | 6.0 | 0.00 | 0.00 | 0.00 | 79 | 1001.7 |
| 20260505062112 | 72 | 214 | 4.0 | 6.0 | 0.00 | 0.00 | 0.00 | 79 | 1001.7 |
| 20260505061609 | 72 | 151 | 5.0 | 8.0 | 0.00 | 0.00 | 0.00 | 79 | 1001.9 |
| 20260505061107 | 72 | 203 | 6.0 | 9.0 | 0.00 | 0.00 | 0.00 | 79 | 1001.9 |
| 20260505060604 | 72 | 117 | 4.0 | 5.0 | 0.00 | 0.00 | 0.00 | 79 | 1001.7 |
| 20260505055556 | 72 | 200 | 5.0 | 7.0 | 0.00 | 0.00 | 0.00 | 78 | 1001.8 |
| 20260505055053 | 72 | 128 | 2.0 | 3.0 | 0.00 | 0.00 | 0.00 | 78 | 1001.7 |